Location: Newark
(48.1500°N, 13.1167°E)
Time: 13:35:44
(UTC+00:00)

Nauka - Visible Passes

Search period start: 20 September 2021 00:00
Search period end: 30 September 2021 00:00
Orbit: 419 x 423 km, 51.6° (Epoch: 19 September)

Date Brightness Start Highest point End Pass type
(mag) Time Alt. Az. Time Alt. Az. Time Alt. Az.
20 Sep ? 18:55:41 10° WSW 18:59:03 68° NNW 18:59:51 47° NE visible
21 Sep ? 18:08:45 10° WSW 18:12:08 89° NNW 18:14:52 15° ENE visible
21 Sep ? 19:45:56 10° WNW 19:47:52 28° WNW 19:47:52 28° WNW visible
22 Sep ? 18:58:56 10° W 19:02:13 47° N 19:02:48 42° NNE visible
23 Sep ? 18:11:56 10° W 18:15:15 54° NNW 18:17:42 17° ENE visible
23 Sep ? 19:49:09 10° WNW 19:50:41 23° WNW 19:50:41 23° WNW visible
24 Sep ? 19:02:11 10° WNW 19:05:27 44° N 19:05:32 44° N visible
25 Sep ? 18:15:11 10° WNW 18:18:27 44° N 18:20:22 21° ENE visible
25 Sep ? 19:52:13 10° WNW 19:53:21 19° WNW 19:53:21 19° WNW visible
26 Sep ? 17:28:09 10° W 17:31:27 47° N 17:34:44 10° ENE visible
26 Sep ? 19:05:18 10° WNW 19:08:11 49° NNW 19:08:11 49° NNW visible
27 Sep ? 18:18:21 10° WNW 18:21:38 47° N 18:23:00 29° ENE visible
27 Sep ? 19:55:15 10° WNW 19:55:59 16° WNW 19:55:59 16° WNW visible
28 Sep ? 17:31:22 10° WNW 17:34:38 44° N 17:37:50 10° ENE visible
28 Sep ? 19:08:19 10° WNW 19:10:49 47° WNW 19:10:49 47° WNW visible
29 Sep ? 18:21:24 10° WNW 18:24:46 69° NNE 18:25:41 43° E visible
29 Sep ? 19:58:27 10° W 19:58:40 11° W 19:58:40 11° W visible
